Wind_Speed
7 7 7 6 6 6 6 6 6 7 7 7 6 6 5 5 4 4 3 2 1 0 2 3 4 4 4 5 5 5 6 7 8 9 10 10 11 11 11 11 11 11 12
5 6 6 6 6 5 6 6 6 6 6 6 6 5 5 4 4 4 3 2 2 1 2 2 3 3 4 5 6 6 7 8 9 10 10 11 11 12 12 12 12 12 12
6 5 5 5 5 4 4 5 5 5 5 5 5 5 5 4 4 4 4 3 3 2 2 3 3 4 5 6 6 8 8 8 9 9 10 10 11 12 12 12 13 12 12
7 7 6 6 6 5 5 5 4 4 5 4 4 4 5 5 5 4 4 4 5 5 4 4 5 5 6 6 7 7 8 8 8 9 10 10 10 11 11 12 13 13 13
9 9 9 9 9 7 6 6 6 5 5 5 5 5 5 6 6 6 5 5 6 6 6 6 6 6 7 8 8 8 9 9 10 10 10 10 10 11 11 11 12 13 13
13 12 11 11 11 10 9 8 8 6 6 6 6 6 7 7 7 7 6 6 7 7 7 7 8 8 8 9 9 9 11 11 12 11 11 11 11 11 12 12 12 13 13
14 14 13 13 12 12 11 10 9 9 8 7 7 8 9 9 8 8 7 7 8 8 8 9 9 10 10 10 11 11 12 12 13 12 12 12 12 13 13 13 13 13 13
16 15 15 14 14 14 14 12 11 11 10 10 9 9 10 10 9 9 9 9 10 10 10 11 11 11 11 12 12 12 12 12 13 13 13 13 13 13 14 14 14 14 14
17 17 16 16 16 16 17 15 14 13 13 12 12 12 11 11 11 10 10 11 11 11 11 11 12 12 12 12 12 12 12 13 13 13 13 14 14 15 15 15 15 15 16
18 18 18 17 17 17 17 17 17 16 16 15 15 14 14 13 13 12 12 12 13 13 12 12 13 13 13 13 13 13 14 14 14 14 14 15 15 15 16 16 16 17 17
19 18 18 18 18 17 18 18 19 20 19 18 17 17 16 15 15 14 14 14 15 15 15 14 14 14 15 15 15 15 15 15 16 16 16 17 17 18 18 18 18 18 19
19 19 18 19 19 19 19 20 21 22 21 21 20 19 18 17 17 16 16 16 17 17 17 17 17 17 17 17 17 18 18 18 18 18 18 19 20 20 20 20 20 21 21
22 21 20 21 20 21 21 21 21 22 23 23 21 20 20 20 19 19 18 18 18 18 18 18 18 19 19 19 20 20 20 20 20 20 20 21 21 22 23 23 23 23 23
23 23 22 22 22 22 22 23 23 23 23 22 22 22 21 21 22 22 21 21 21 20 19 20 20 21 21 21 22 22 22 22 22 22 22 23 23 23 24 24 25 25 25
25 24 24 23 23 23 23 23 23 24 24 24 23 23 23 24 24 24 24 24 23 24 23 23 22 23 23 23 24 23 23 23 24 25 25 25 25 26 26 26 27 26 26
26 24 24 24 24 24 25 25 25 25 25 26 25 24 25 25 25 26 26 26 25 24 24 23 23 24 24 24 25 25 25 25 26 26 27 27 28 28 28 27 28 28 28
26 25 26 26 26 26 25 26 26 25 26 27 26 26 26 27 26 26 27 27 26 24 25 25 25 25 25 24 25 26 27 27 28 28 28 29 29 30 30 29 29 28 28
27 26 25 26 26 26 26 26 26 27 27 27 28 28 27 27 27 27 27 28 28 27 27 27 27 26 26 26 27 28 29 29 29 29 29 30 30 30 31 32 31 31 30
28 26 26 26 26 26 26 27 27 27 29 29 29 28 28 28 28 28 29 29 29 28 29 29 29 29 28 29 30 31 31 32 32 32 32 32 32 32 32 32 32 32 31
28 27 28 28 28 28 28 28 28 28 28 29 30 30 30 30 29 30 30 30 30 30 31 31 31 30 30 31 31 32 33 33 33 33 33 34 34 34 33 32 32 32 32
29 30 30 30 30 30 29 29 29 30 30 31 30 29 29 29 30 31 31 31 32 32 32 31 31 31 31 32 33 33 34 33 33 34 34 34 34 34 34 33 33 33 33
30 31 31 31 31 30 30 30 29 30 30 30 30 30 30 29 30 31 31 32 32 33 33 32 32 32 32 33 34 34 34 34 35 35 35 36 36 35 35 35 35 35 34
30 30 31 30 30 31 31 30 30 30 30 30 30 31 31 32 32 32 32 33 34 34 34 33 33 33 34 34 34 35 35 36 36 37 37 37 37 37 36 36 37 37 36
29 29 29 30 31 31 30 30 30 31 31 30 31 32 32 32 32 32 33 34 34 35 34 34 34 34 34 35 36 36 36 37 37 38 38 38 37 37 37 37 37 37 37
28 28 29 30 30 30 31 31 31 31 31 31 31 32 32 32 32 32 32 33 33 34 34 35 35 35 35 35 36 37 36 36 36 37 36 37 38 38 37 37 37 37 37
27 28 29 30 30 30 30 30 30 30 31 31 31 32 31 30 31 31 31 32 32 33 33 33 34 33 34 35 35 36 36 36 36 36 35 35 36 36 36 37 38 38 37
Wind_Direction
26 26 29 28 24 26 31 35 33 34 36 38 42 43 43 45 42 40 40 43 40 253 250 247 240 246 254 247 249 261 266 261 255 257 259 259 262 260 257 255 252 252 252
1 7 15 16 14 14 14 16 20 19 20 23 27 30 30 29 23 18 14 11 354 319 279 264 259 267 268 268 261 265 270 269 267 262 259 261 261 262 259 257 255 254 255
320 328 342 347 349 353 353 355 2 6 6 8 12 16 16 11 10 6 0 349 336 320 293 270 265 275 283 276 272 273 271 273 272 269 263 262 258 261 260 258 255 256 256
298 307 309 312 312 318 319 325 336 343 341 349 349 350 351 350 344 336 325 321 316 301 290 283 278 277 274 278 278 277 277 274 274 273 271 268 263 258 258 259 258 257 258
288 292 296 295 295 293 297 299 305 312 320 323 327 327 326 330 330 325 312 308 308 297 284 279 283 283 275 275 278 275 276 276 277 278 276 273 270 264 260 260 260 261 261
282 286 294 292 287 284 286 285 291 292 300 306 307 308 310 311 314 316 309 299 298 298 286 279 280 284 284 282 281 279 277 274 274 274 276 272 271 266 263 263 263 262 265
283 286 288 292 285 282 280 280 282 283 284 289 291 293 295 295 296 302 303 296 291 290 287 278 277 279 282 283 280 281 282 281 277 275 275 272 270 267 266 268 267 267 268
283 285 284 285 284 282 280 275 277 276 276 282 281 281 285 286 291 288 289 294 292 289 287 277 274 275 280 282 281 279 280 283 280 277 274 272 272 268 266 268 268 268 269
278 281 277 277 281 278 277 270 269 271 273 276 281 280 280 282 284 287 287 291 293 293 290 284 278 278 279 280 284 282 282 281 279 277 275 273 272 269 266 267 268 268 268
275 278 274 274 282 279 275 269 268 271 271 272 274 278 283 284 281 284 285 286 288 290 291 287 285 279 278 280 282 282 281 281 278 277 277 277 273 269 268 269 270 270 268
275 277 277 275 278 282 280 276 271 270 269 269 271 275 281 286 284 283 282 284 284 284 284 285 287 282 279 280 281 281 280 279 278 277 277 276 274 272 270 270 272 272 270
275 274 275 277 278 281 283 280 269 267 268 267 269 272 278 282 281 280 280 283 284 284 283 284 283 283 282 281 280 279 279 278 278 276 275 276 275 273 272 271 272 272 271
274 273 274 274 274 276 278 280 270 269 270 268 269 272 276 275 276 278 280 283 285 285 284 283 283 282 281 280 280 278 276 276 277 276 276 276 276 275 273 271 271 272 271
273 272 272 272 272 273 274 278 273 274 272 272 269 271 272 273 275 275 277 279 283 284 283 283 284 283 281 281 282 280 277 275 276 277 276 277 277 278 275 273 272 272 272
274 272 270 269 269 271 274 274 273 273 272 273 273 272 272 274 275 275 277 277 280 282 280 280 281 282 283 283 283 281 278 275 275 275 275 276 277 279 277 274 273 272 273
276 274 269 266 267 269 271 271 271 271 270 272 273 274 273 273 275 275 276 278 280 281 278 280 280 282 282 282 281 279 276 276 276 275 275 276 277 277 278 275 273 272 272
275 271 268 266 268 269 270 271 271 269 268 270 273 274 274 274 273 275 276 278 278 280 280 280 280 279 280 281 280 279 277 277 277 277 277 277 276 275 276 276 276 274 272
271 270 268 269 270 270 271 273 272 268 268 270 273 274 273 272 273 273 276 277 279 280 280 282 282 280 279 280 280 278 278 279 278 278 278 278 278 278 277 276 277 276 274
271 270 271 270 270 271 271 272 272 270 271 271 274 274 273 273 274 275 276 277 278 280 281 282 280 280 279 278 277 277 277 277 278 277 277 278 278 277 276 275 274 275 276
269 269 269 270 272 272 271 271 272 271 271 273 273 274 274 273 274 274 275 276 277 279 280 281 279 279 278 277 277 277 277 277 277 276 276 278 277 277 276 275 275 275 276
268 268 268 270 272 272 273 274 275 274 274 275 275 274 274 274 275 275 275 276 277 278 279 279 279 278 277 277 276 277 278 277 276 274 275 276 276 276 276 276 276 275 275
265 266 267 269 271 271 272 273 274 276 276 276 275 275 274 274 275 275 275 276 277 278 278 279 279 278 277 277 277 277 277 277 276 275 274 274 275 274 274 275 276 276 275
265 267 269 270 272 272 272 271 273 275 276 278 279 279 279 279 278 276 277 278 279 279 279 278 277 277 278 277 278 277 276 276 276 275 274 274 274 274 274 274 275 276 276
269 271 272 272 273 273 273 274 274 275 277 279 280 281 282 281 282 280 277 277 278 279 278 277 277 277 277 278 278 277 276 276 275 274 276 275 274 274 274 275 276 276 276
269 269 271 273 274 275 276 277 276 276 279 280 280 281 282 282 281 281 281 280 280 281 280 279 277 276 276 277 277 278 278 276 276 273 273 274 275 275 276 276 276 276 276
269 270 272 274 274 275 278 280 279 279 280 280 280 281 281 280 281 281 282 282 282 283 283 282 280 279 281 280 278 278 277 276 275 274 273 274 275 274 275 275 275 276 276
Height
5896 5895 5894 5893 5892 5891 5890 5889 5888 5887 5886 5885 5884 5883 5882 5882 5881 5881 5880 5880 5880 5880 5881 5881 5881 5881 5882 5882 5882 5882 5882 5882 5883 5883 5883 5884 5884 5884 5884 5884 5885 5885 5885
5896 5895 5894 5893 5892 5891 5891 5890 5889 5888 5887 5886 5885 5884 5883 5882 5882 5881 5881 5880 5880 5880 5880 5881 5881 5881 5881 5881 5881 5881 5881 5881 5881 5881 5882 5882 5882 5881 5882 5882 5882 5882 5883
5895 5895 5894 5893 5892 5892 5891 5890 5889 5888 5887 5886 5886 5884 5884 5883 5882 5881 5881 5880 5880 5880 5879 5879 5879 5879 5880 5880 5880 5880 5879 5879 5879 5879 5879 5879 5879 5879 5879 5879 5880 5880 5880
5895 5894 5893 5893 5892 5891 5890 5890 5889 5888 5887 5886 5885 5885 5884 5882 5882 5881 5880 5880 5879 5879 5878 5878 5878 5878 5878 5878 5878 5878 5878 5877 5877 5877 5877 5877 5876 5876 5877 5877 5877 5877 5878
5893 5893 5892 5892 5891 5890 5889 5889 5888 5887 5886 5885 5885 5884 5883 5882 5881 5880 5880 5879 5878 5878 5877 5877 5877 5877 5876 5876 5876 5876 5876 5875 5875 5875 5874 5874 5874 5874 5874 5875 5875 5875 5875
5891 5891 5890 5890 5889 5888 5888 5886 5886 5885 5885 5884 5884 5883 5882 5881 5880 5879 5879 5878 5877 5876 5876 5876 5876 5875 5874 5874 5873 5873 5873 5873 5872 5872 5872 5871 5871 5871 5871 5872 5872 5872 5872
5888 5888 5888 5887 5887 5886 5885 5884 5884 5883 5882 5882 5882 5881 5880 5879 5879 5878 5877 5876 5876 5875 5874 5874 5873 5873 5872 5871 5871 5871 5870 5870 5869 5869 5869 5868 5868 5868 5868 5869 5869 5868 5868
5885 5885 5884 5884 5884 5883 5882 5882 5881 5880 5880 5879 5878 5878 5877 5877 5876 5875 5874 5874 5873 5872 5872 5871 5871 5870 5869 5869 5868 5868 5867 5867 5866 5866 5865 5865 5865 5865 5865 5865 5865 5865 5865
5881 5881 5880 5880 5880 5879 5878 5878 5877 5877 5877 5876 5875 5875 5874 5873 5873 5872 5871 5871 5871 5870 5869 5868 5868 5867 5867 5866 5865 5864 5864 5863 5863 5862 5862 5861 5861 5861 5861 5861 5860 5861 5861
5877 5877 5876 5876 5876 5875 5874 5873 5874 5873 5873 5872 5871 5871 5871 5870 5869 5869 5868 5868 5868 5867 5866 5865 5864 5864 5863 5862 5862 5861 5860 5860 5859 5859 5858 5858 5857 5857 5856 5856 5856 5856 5856
5873 5872 5872 5872 5871 5870 5869 5869 5869 5868 5867 5867 5867 5867 5866 5866 5865 5865 5865 5864 5864 5863 5862 5861 5860 5859 5859 5858 5858 5857 5856 5856 5855 5854 5854 5853 5853 5852 5851 5851 5851 5850 5850
5867 5867 5867 5867 5866 5865 5865 5864 5862 5862 5862 5862 5861 5861 5861 5861 5861 5860 5860 5860 5859 5858 5857 5857 5856 5855 5854 5853 5853 5852 5852 5851 5850 5850 5849 5848 5847 5847 5846 5846 5845 5845 5844
5861 5861 5862 5861 5861 5861 5860 5859 5857 5857 5857 5856 5855 5856 5856 5856 5856 5855 5855 5854 5854 5853 5852 5851 5850 5850 5849 5848 5847 5846 5846 5845 5845 5844 5843 5843 5842 5841 5840 5839 5839 5838 5838
5855 5855 5855 5855 5855 5855 5854 5853 5852 5851 5851 5850 5850 5850 5850 5850 5849 5849 5849 5848 5847 5847 5846 5845 5844 5844 5843 5842 5841 5840 5839 5839 5838 5838 5837 5836 5835 5834 5833 5833 5832 5831 5831
5847 5848 5848 5848 5848 5848 5847 5846 5845 5845 5845 5844 5844 5844 5843 5844 5844 5843 5843 5842 5841 5840 5839 5839 5838 5837 5837 5836 5835 5834 5833 5832 5832 5831 5830 5830 5829 5828 5826 5825 5825 5824 5823
5840 5840 5841 5841 5841 5841 5840 5839 5839 5838 5838 5838 5838 5837 5837 5837 5837 5836 5836 5835 5834 5833 5832 5832 5831 5831 5830 5829 5828 5827 5826 5825 5825 5824 5823 5822 5821 5820 5819 5818 5817 5816 5816
5832 5833 5834 5834 5834 5833 5833 5832 5832 5830 5831 5831 5830 5830 5830 5830 5829 5828 5828 5827 5827 5826 5825 5825 5824 5823 5822 5821 5820 5819 5819 5818 5817 5816 5815 5814 5813 5812 5811 5810 5808 5808 5807
5824 5825 5826 5826 5826 5826 5825 5825 5824 5824 5824 5823 5823 5822 5822 5822 5821 5820 5820 5820 5819 5819 5818 5817 5816 5815 5814 5813 5812 5811 5810 5810 5809 5808 5807 5806 5805 5803 5802 5801 5800 5799 5799
5817 5817 5818 5818 5818 5818 5818 5818 5817 5816 5816 5816 5815 5815 5814 5813 5813 5812 5812 5812 5812 5811 5810 5809 5808 5806 5805 5804 5803 5802 5801 5800 5800 5799 5798 5797 5796 5794 5793 5792 5792 5791 5790
5808 5809 5810 5810 5810 5810 5810 5809 5809 5808 5808 5807 5807 5806 5805 5805 5804 5804 5803 5803 5803 5802 5801 5800 5798 5797 5796 5794 5793 5792 5791 5791 5790 5789 5788 5787 5786 5785 5783 5783 5782 5781 5781
5800 5801 5801 5801 5802 5802 5801 5801 5800 5800 5800 5799 5798 5797 5797 5796 5796 5796 5795 5794 5793 5792 5791 5790 5788 5787 5786 5785 5784 5782 5781 5781 5780 5779 5778 5777 5776 5775 5774 5773 5773 5772 5771
5790 5791 5792 5792 5793 5792 5792 5792 5792 5791 5790 5790 5789 5789 5788 5787 5786 5786 5786 5785 5784 5783 5781 5780 5779 5777 5776 5775 5774 5772 5771 5771 5770 5768 5767 5766 5765 5764 5764 5763 5763 5762 5761
5781 5782 5782 5783 5783 5782 5782 5782 5782 5782 5781 5781 5781 5780 5779 5777 5776 5776 5776 5775 5774 5773 5771 5770 5769 5768 5766 5765 5764 5762 5761 5760 5759 5758 5757 5756 5755 5754 5753 5753 5752 5751 5750
5772 5772 5772 5773 5773 5773 5773 5773 5773 5772 5772 5772 5771 5771 5770 5769 5767 5766 5765 5764 5764 5762 5761 5760 5759 5757 5756 5755 5753 5752 5750 5749 5748 5747 5746 5745 5744 5743 5743 5742 5741 5740 5739
5762 5763 5763 5764 5764 5764 5764 5763 5763 5763 5762 5762 5761 5761 5760 5759 5758 5757 5755 5754 5754 5752 5751 5749 5748 5747 5746 5744 5742 5741 5740 5738 5736 5735 5735 5734 5733 5733 5732 5731 5730 5729 5728
5754 5754 5755 5754 5754 5754 5754 5754 5754 5753 5753 5753 5752 5751 5750 5749 5748 5747 5746 5744 5743 5742 5740 5738 5737 5736 5735 5733 5732 5730 5728 5727 5725 5725 5724 5723 5722 5722 5721 5720 5719 5718 5717